Tekamah, NE

3:55 PM CST on January 17, 2017 (GMT -0600)
Tekamah

Weather History for KTQE - October, 2012

Change the Weather History Date:

Monday, October 15, 2012

  Actual Average Record
Temperature  
Mean Temperature 54 °F -  
Max Temperature 75 °F 66 °F 88 °F (1958)
Min Temperature 33 °F 40 °F 27 °F (1952)
Degree Days  
Heating Degree Days 11    
Growing Degree Days 4 (Base 50)    
Moisture  
Dew Point 39 °F    
Average Humidity 65    
Maximum Humidity 93    
Minimum Humidity 29    
Precipitation  
Precipitation 0.00 in - - ()
Sea Level Pressure  
Sea Level Pressure 29.90 in    
Wind  
Wind Speed 4 mph (SSE)    
Max Wind Speed 14 mph    
Max Gust Speed 18 mph    
Visibility 8 miles    
Events      
Averages and records for this station are not official NWS values.
T = Trace of Precipitation, MM = Missing Value Source: NWS Daily Summary

Daily Weather History Graph

Daily Weather History Graph

Search for Another Location

Airport or City:

Trip Planner

Search our weather history database for the weather conditions in past years. The results will help you decide how hot, cold, wet, or windy it might be!

Date:

Astronomy

Oct. 15, 2012 Rise Set
Actual Time 7:37 AM CDT 6:42 PM CDT
Civil Twilight 7:09 AM CDT 7:10 PM CDT
Nautical Twilight 6:37 AM CDT 7:42 PM CDT
Astronomical Twilight 6:04 AM CDT 8:14 PM CDT
Moon 7:50 AM CDT (10/15) 6:41 PM CDT (10/15)
Length of Visible Light 12h 01m
Length of Day
11h 05m
New Moon, 0% of the Moon is Illuminated
Oct 15
New Moon
Oct 21
First Quarter
Oct 29
Full
Nov 6
Last Quarter
Nov 13
New

Hourly Weather History & Observations

Time (CDT) Temp. Windchill Dew Point Humidity Pressure Visibility Wind Dir Wind Speed Gust Speed Precip Events Conditions
12:54 AM 42.1 °F 40.2 °F 35.1 °F 76% 29.97 in 10.0 mi West 3.5 mph - N/A   Clear
1:54 AM 42.1 °F 40.2 °F 35.1 °F 76% 29.97 in 10.0 mi West 3.5 mph - N/A   Clear
2:54 AM 39.9 °F - 34.0 °F 79% 29.97 in 9.0 mi Calm Calm - N/A   Clear
3:54 AM 37.9 °F - 34.0 °F 86% 29.96 in 8.0 mi Calm Calm - N/A   Clear
4:54 AM 37.0 °F 34.5 °F 34.0 °F 89% 29.96 in 7.0 mi South 3.5 mph - N/A   Clear
5:54 AM 36.0 °F - 33.1 °F 89% 29.96 in 7.0 mi Calm Calm - N/A   Clear
6:54 AM 34.0 °F - 30.9 °F 89% 29.98 in 7.0 mi Calm Calm - N/A   Clear
7:52 AM 33.8 °F - 30.2 °F 87% 29.98 in 2.0 mi Calm Calm - N/A   Clear
7:54 AM 33.1 °F - 30.9 °F 92% 29.98 in 1.8 mi Calm Calm - N/A   Clear
8:03 AM 33.8 °F - 32.0 °F 93% 29.98 in 2.5 mi Calm Calm - N/A   Clear
8:12 AM 35.6 °F - 33.8 °F 93% 29.98 in 3.0 mi Calm Calm - N/A   Clear
8:54 AM 42.1 °F - 37.9 °F 85% 29.98 in 5.0 mi Calm Calm - N/A   Clear
9:54 AM 48.9 °F - 41.0 °F 74% 29.99 in 7.0 mi South 3.5 mph - N/A   Clear
10:54 AM 57.9 °F - 43.0 °F 58% 29.97 in 9.0 mi SSE 6.9 mph - N/A   Clear
11:54 AM 64.0 °F - 42.1 °F 45% 29.94 in 10.0 mi SSE 10.4 mph - N/A   Clear
12:54 PM 69.1 °F - 42.1 °F 38% 29.91 in 10.0 mi South 10.4 mph - N/A   Clear
1:54 PM 72.0 °F - 41.0 °F 33% 29.88 in 10.0 mi SSE 11.5 mph - N/A   Clear
2:54 PM 73.9 °F - 42.1 °F 32% 29.84 in 10.0 mi South 10.4 mph 18.4 mph N/A   Clear
3:54 PM 75.0 °F - 41.0 °F 29% 29.82 in 10.0 mi SSE 13.8 mph - N/A   Clear
4:54 PM 75.0 °F - 43.0 °F 32% 29.81 in 10.0 mi SSE 13.8 mph - N/A   Clear
5:54 PM 71.1 °F - 44.1 °F 38% 29.79 in 10.0 mi SSE 11.5 mph - N/A   Clear
6:54 PM 64.0 °F - 45.0 °F 50% 29.78 in 10.0 mi SE 10.4 mph - N/A   Clear
7:54 PM 61.0 °F - 44.1 °F 54% 29.79 in 10.0 mi SE 9.2 mph - N/A   Clear
8:54 PM 60.1 °F - 45.0 °F 57% 29.78 in 10.0 mi SSE 8.1 mph - N/A   Clear
9:54 PM 55.9 °F - 44.1 °F 64% 29.76 in 10.0 mi SSE 5.8 mph - N/A   Clear
10:54 PM 59.0 °F - 46.0 °F 62% 29.74 in 10.0 mi SE 11.5 mph - N/A   Clear
11:54 PM 57.0 °F - 46.0 °F 67% 29.72 in 10.0 mi SE 9.2 mph - N/A   Clear